COSMOS 2537 (44423 NORAD) Tracking and Keplerian Element Data

This shows tracking and keplerian element data for the satellite.

Feedback or suggestion? Click here.




ElementValue
Catalog44423
NameCOSMOS 2537
Epoch Orbit435
Epoch Day221.11176368
Epoch Year2019
RAAN272.7476
Inclination97.8844
Eccentricity0.0010162
Argument of Perigee196.5999
Mean Anonmoly163.4894
Mean Motion14.83723755
Decay Rate1.29E-05
L11 44423U 19039C 19221.11176368 .00001290 00000-0 16232-3 0 9996
L22 44423 97.8844 272.7476 0010162 196.5999 163.4894 14.83723755 4354

Live tracking and technical data element details for COSMOS 2537 (NORAD 44423). COSMOS 2537 can be tracked NOW for your location showing map with azimuth and elevation plus other details from your city location.

Track the satellite on the map from your city or location and see movement details for azimuth, elevation, latitude, longitude, range, height, and movement on the map or in text.







IsCatalogInMostPopularTable: catalog: 44423, numindb: 11
Update: records affected: 1



GetName: 44423 COSMOS 2537

Hit Count: updated at: Wed, 21 Aug 2019 11:54:27 GMT